Time,TemperatureF,DewpointF,PressureIn,WindDirection,WindDirectionDegrees,WindSpeedMPH,WindSpeedGustMPH,Humidity,HourlyPrecipIn,Conditions,Clouds,dailyrainin,SoftwareType,DateUTC
2013-11-13 00:22:00,25.0,15.0,30.64,SSW,198,3.0,5.0,64,0.00,,,0.00,,2013-11-13 06:22:00,
2013-11-13 00:42:00,25.0,15.0,30.63,SSW,196,3.0,5.0,64,0.00,,,0.00,,2013-11-13 06:42:00,
2013-11-13 00:52:00,25.0,15.0,30.63,South,170,4.0,9.0,64,0.00,,,0.00,,2013-11-13 06:52:00,
2013-11-13 01:22:00,25.0,15.0,30.61,South,183,3.0,7.0,65,0.00,,,0.00,,2013-11-13 07:22:00,
2013-11-13 01:42:00,25.0,15.0,30.61,South,175,3.0,6.0,65,0.00,,,0.00,,2013-11-13 07:42:00,
2013-11-13 01:52:00,26.0,16.0,30.60,South,190,2.0,6.0,64,0.00,,,0.00,,2013-11-13 07:52:00,
2013-11-13 02:22:00,25.0,16.0,30.59,SSE,167,0.0,6.0,67,0.00,,,0.00,,2013-11-13 08:22:00,
2013-11-13 02:42:00,26.0,16.0,30.58,SSW,195,3.0,7.0,66,0.00,,,0.00,,2013-11-13 08:42:00,
2013-11-13 02:52:00,27.0,16.0,30.58,South,178,6.0,10.0,64,0.00,,,0.00,,2013-11-13 08:52:00,
2013-11-13 03:21:00,26.0,16.0,30.56,South,171,2.0,9.0,66,0.00,,,0.00,,2013-11-13 09:21:00,
2013-11-13 03:43:00,25.0,16.0,30.56,SSW,200,2.0,5.0,68,0.00,,,0.00,,2013-11-13 09:43:00,
2013-11-13 03:52:00,25.0,16.0,30.56,South,186,1.0,5.0,69,0.00,,,0.00,,2013-11-13 09:52:00,
2013-11-13 04:23:00,25.0,16.0,30.54,SSW,194,2.0,5.0,69,0.00,,,0.00,,2013-11-13 10:23:00,
2013-11-13 04:42:00,25.0,16.0,30.53,South,180,2.0,7.0,69,0.00,,,0.00,,2013-11-13 10:42:00,
2013-11-13 04:52:00,25.0,16.0,30.53,SSW,192,1.0,6.0,68,0.00,,,0.00,,2013-11-13 10:52:00,
2013-11-13 05:22:00,25.0,16.0,30.53,SW,223,2.0,5.0,68,0.00,,,0.00,,2013-11-13 11:22:00,
2013-11-13 05:42:00,26.0,17.0,30.53,South,191,3.0,7.0,67,0.00,,,0.00,,2013-11-13 11:42:00,
2013-11-13 05:52:00,26.0,17.0,30.52,SSW,199,4.0,7.0,67,0.00,,,0.00,,2013-11-13 11:52:00,
2013-11-13 06:22:00,26.0,17.0,30.51,South,177,6.0,10.0,69,0.00,,,0.00,,2013-11-13 12:22:00,
2013-11-13 06:42:00,26.0,17.0,30.50,SSW,196,2.0,10.0,68,0.00,,,0.00,,2013-11-13 12:42:00,
2013-11-13 06:52:00,26.0,17.0,30.50,SSW,199,3.0,13.0,69,0.00,,,0.00,,2013-11-13 12:52:00,
2013-11-13 07:21:00,25.0,16.0,30.49,SSW,193,2.0,9.0,69,0.00,,,0.00,,2013-11-13 13:21:00,
2013-11-13 07:42:00,26.0,17.0,30.48,South,172,3.0,9.0,68,0.00,,,0.00,,2013-11-13 13:42:00,
2013-11-13 07:52:00,26.0,17.0,30.48,South,174,4.0,11.0,67,0.00,,,0.00,,2013-11-13 13:52:00,
2013-11-13 08:11:00,27.0,17.0,30.47,SW,215,4.0,13.0,65,0.00,,,0.00,,2013-11-13 14:11:00,
2013-11-13 08:22:00,28.0,17.0,30.47,SSW,198,5.0,15.0,64,0.00,,,0.00,,2013-11-13 14:22:00,
2013-11-13 08:42:00,28.0,17.0,30.46,South,186,5.0,15.0,63,0.00,,,0.00,,2013-11-13 14:42:00,
2013-11-13 08:52:00,29.0,17.0,30.47,South,177,9.0,15.0,61,0.00,,,0.00,,2013-11-13 14:52:00,
2013-11-13 09:12:00,31.0,18.0,30.46,SSW,192,7.0,16.0,58,0.00,,,0.00,,2013-11-13 15:12:00,
2013-11-13 09:22:00,33.0,18.0,30.45,SE,130,7.0,16.0,54,0.00,,,0.00,,2013-11-13 15:22:00,
2013-11-13 09:43:00,34.0,18.0,30.45,South,184,3.0,13.0,51,0.00,,,0.00,,2013-11-13 15:43:00,
2013-11-13 09:53:00,35.0,18.0,30.44,SW,221,7.0,15.0,50,0.00,,,0.00,,2013-11-13 15:53:00,
2013-11-13 10:23:00,38.0,20.0,30.42,SW,234,4.0,18.0,48,0.00,,,0.00,,2013-11-13 16:23:00,
2013-11-13 10:43:00,39.0,20.0,30.41,SW,227,7.0,20.0,47,0.00,,,0.00,,2013-11-13 16:43:00,
2013-11-13 10:52:00,40.0,20.0,30.40,West,275,4.0,15.0,45,0.00,,,0.00,,2013-11-13 16:52:00,
2013-11-13 11:23:00,43.0,21.0,30.39,WNW,293,4.0,13.0,41,0.00,,,0.00,,2013-11-13 17:23:00,
2013-11-13 11:52:00,45.0,22.0,30.37,SE,143,5.0,17.0,39,0.00,,,0.00,,2013-11-13 17:52:00,
2013-11-13 12:23:00,47.0,23.0,30.34,South,184,9.0,18.0,38,0.00,,,0.00,,2013-11-13 18:23:00,
2013-11-13 12:42:00,48.0,24.0,30.32,SSW,194,5.0,15.0,38,0.00,,,0.00,,2013-11-13 18:42:00,
2013-11-13 12:52:00,48.0,24.0,30.31,WSW,245,5.0,19.0,39,0.00,,,0.00,,2013-11-13 18:52:00,
2013-11-13 13:11:00,49.0,25.0,30.30,South,173,11.0,22.0,39,0.00,,,0.00,,2013-11-13 19:11:00,
2013-11-13 13:21:00,50.0,25.0,30.29,South,184,8.0,21.0,38,0.00,,,0.00,,2013-11-13 19:21:00,
2013-11-13 13:42:00,51.0,26.0,30.28,SSW,198,9.0,17.0,38,0.00,,,0.00,,2013-11-13 19:42:00,
2013-11-13 13:52:00,51.0,27.0,30.27,South,184,3.0,20.0,39,0.00,,,0.00,,2013-11-13 19:52:00,
2013-11-13 14:22:00,52.0,28.0,30.27,South,177,10.0,20.0,39,0.00,,,0.00,,2013-11-13 20:22:00,
2013-11-13 14:52:00,53.0,29.0,30.25,South,171,6.0,21.0,40,0.00,,,0.00,,2013-11-13 20:52:00,
2013-11-13 15:22:00,53.0,29.0,30.23,SSW,211,7.0,23.0,40,0.00,,,0.00,,2013-11-13 21:22:00,
2013-11-13 15:43:00,52.0,29.0,30.23,South,191,5.0,21.0,41,0.00,,,0.00,,2013-11-13 21:43:00,
2013-11-13 15:53:00,52.0,29.0,30.22,South,175,5.0,20.0,41,0.00,,,0.00,,2013-11-13 21:53:00,
2013-11-13 16:23:00,52.0,30.0,30.20,South,175,6.0,19.0,42,0.00,,,0.00,,2013-11-13 22:23:00,
2013-11-13 16:42:00,51.0,29.0,30.19,SSE,161,8.0,20.0,42,0.00,,,0.00,,2013-11-13 22:42:00,
2013-11-13 16:53:00,51.0,29.0,30.19,South,187,6.0,21.0,43,0.00,,,0.00,,2013-11-13 22:53:00,
2013-11-13 17:22:00,49.0,29.0,30.18,South,190,10.0,16.0,45,0.00,,,0.00,,2013-11-13 23:22:00,
2013-11-13 17:43:00,48.0,28.0,30.17,South,178,9.0,17.0,46,0.00,,,0.00,,2013-11-13 23:43:00,
2013-11-13 17:52:00,47.0,28.0,30.17,SSE,155,7.0,21.0,47,0.00,,,0.00,,2013-11-13 23:52:00,
2013-11-13 18:22:00,46.0,28.0,30.16,SSW,192,8.0,16.0,49,0.00,,,0.00,,2013-11-14 00:22:00,
2013-11-13 18:42:00,45.0,27.0,30.16,South,187,9.0,21.0,50,0.00,,,0.00,,2013-11-14 00:42:00,
2013-11-13 18:52:00,45.0,27.0,30.16,South,178,5.0,16.0,50,0.00,,,0.00,,2013-11-14 00:52:00,
2013-11-13 19:21:00,44.0,27.0,30.15,SSW,192,9.0,17.0,50,0.00,,,0.00,,2013-11-14 01:21:00,
2013-11-13 19:42:00,44.0,26.0,30.14,South,171,9.0,27.0,49,0.00,,,0.00,,2013-11-14 01:42:00,
2013-11-13 19:52:00,44.0,26.0,30.15,SSE,166,11.0,21.0,49,0.00,,,0.00,,2013-11-14 01:52:00,
2013-11-13 20:21:00,44.0,26.0,30.14,South,173,12.0,24.0,48,0.00,,,0.00,,2013-11-14 02:21:00,
2013-11-13 21:11:00,43.0,24.0,30.12,SSW,211,5.0,19.0,47,0.00,,,0.00,,2013-11-14 03:11:00,
2013-11-13 21:21:00,43.0,24.0,30.11,West,261,6.0,20.0,47,0.00,,,0.00,,2013-11-14 03:21:00,
2013-11-13 21:44:00,43.0,24.0,30.11,SSW,192,6.0,25.0,47,0.00,,,0.00,,2013-11-14 03:44:00,
2013-11-13 21:54:00,43.0,24.0,30.10,ESE,112,7.0,18.0,46,0.00,,,0.00,,2013-11-14 03:54:00,
2013-11-13 22:24:00,42.0,23.0,30.10,SSE,168,5.0,28.0,47,0.00,,,0.00,,2013-11-14 04:24:00,
2013-11-13 22:54:00,42.0,23.0,30.08,SE,142,6.0,21.0,47,0.00,,,0.00,,2013-11-14 04:54:00,
2013-11-13 23:23:00,41.0,22.0,30.07,South,186,6.0,16.0,47,0.00,,,0.00,,2013-11-14 05:23:00,
2013-11-13 23:44:00,41.0,22.0,30.07,WNW,300,7.0,19.0,47,0.00,,,0.00,,2013-11-14 05:44:00,
2013-11-13 23:53:00,41.0,22.0,30.06,SSE,165,6.0,20.0,46,0.00,,,0.00,,2013-11-14 05:53:00,